Back to catalog

STARLINK-3545

AliveCommunicationsVLEO
NORAD 51855·PAYLOAD·🇺🇸 United States

Launched Mar 3, 2022 from Cape Canaveral Space Force Station

Loading…

Next Passes (next 24 hours)

TLE

FreshSource: CelesTrak SupGP

Epoch: Sep 15, 2026, 02:00 UTC

1 51855C 22022D   26258.08381944 -.00056927  00000+0 -16820-2 0  2589
2 51855  53.1579 234.7410 0001374  92.7141 338.9539 15.34417743    16

Track STARLINK-3545 in real time with AllMySat

Download on the App Store